Kullen, Sweden

2:23 AM CEST on August 30, 2015 (GMT +0200)
THE SUMMIT MTB | | Change Station
CLOSE
Current Station
Personal Weather Station
Location: Strandbaden, Skåne län
Elevation: 33 ft
Nearby Weather Stations

Elev 33 ft 56.22 °N, 12.54 °E | Updated 3 seconds ago

Overcast
Overcast
61.9 °F
Feels Like 61.9 °F
N
1.0
Wind Variable Wind from SW
Gusts 0.0 mph

Today
High -- | Low -- °F
--% Chance of Precip.
Yesterday
High -- | Low -- °F
Precip. -- in
6:08 AM 8:11 PM
Full, 100% visible
Pressure 30.15 in
Visibility 6.2 miles
Clouds Overcast 20000 ft
Dew Point 59 °F
Humidity 89%
Rainfall 0.00 in
Snow Depth Not available.
UV 0 out of 12
Pollen Not available.
Air Quality Not available.
Flu Activity Not available.
METAR ESTA 292350Z AUTO 10004KT 9999 OVC200/// 13/12 Q1021
Pressure 30.15 in
Visibility 6.2 miles
Clouds Overcast 20000 ft
Dew Point 59 °F
Humidity 89%
Rainfall 0.00 in
Snow Depth Not available.
UV 0 out of 12
Pollen Not available.
Air Quality Not available.
Flu Activity Not available.
METAR ESTA 292350Z AUTO 10004KT 9999 OVC200/// 13/12 Q1021

10-Day Weather Forecast

×

Almanac

Astronomy

Aug. 30, 2015 Rise Set
Actual Time
Civil Twilight
Nautical Twilight
Astronomical Twilight
Moon
Length of Visible Light
Length of Day
Tomorrow will be .
, % of the Moon is Illuminated

Today's Extremes

Country Highs Country Lows

Community

WunderPhotos

Upload Photos

1,850,794 photos uploaded!

WunderBlogs® & News

Nearby

Air Quality

  Air Quality AQ Index Pollutant
Not available.

Snow Depth

Station Depth Elevation

Earthquake Activity

City Distance Mag. Time & Date
Minimum magnitude displayed is 2.5.

Coastal Water Temperatures

Place Temperature

Stations

Nearby Weather Stations

Station Location Temp. Windchill Dew Point Humidity Wind Precip. Elev Updated Type